Location: Roanoke
(37.2710°N, 79.9420°W)
Time: 13:12:24
(UTC-04:00)

Envisat - Visible Passes

Search period start: 20 March 2019 00:00
Search period end: 30 March 2019 00:00
Orbit: 764 x 766 km, 98.2° (Epoch: 19 March)

Date Brightness Start Highest point End Pass type
(mag) Time Alt. Az. Time Alt. Az. Time Alt. Az.
20 Mar 5.2 20:52:44 10° SSW 20:56:59 27° W 21:01:15 10° NW visible
21 Mar 3.6 20:15:05 10° S 20:20:05 63° W 20:25:08 10° NNW visible
22 Mar 5.9 21:19:57 10° SW 21:22:44 15° W 21:25:31 10° WNW visible
23 Mar 4.8 20:41:08 10° SSW 20:45:42 34° W 20:50:19 10° NNW visible
24 Mar 3.2 20:03:48 10° S 20:08:51 81° WSW 20:13:58 10° NNW visible
25 Mar 5.7 21:07:52 10° SW 21:11:24 19° W 21:14:58 10° NW visible
26 Mar 4.3 20:29:37 10° S 20:34:26 44° W 20:39:17 10° NNW visible
27 Mar 3.0 19:52:36 10° SSE 19:57:40 80° ENE 20:02:45 10° N visible
28 Mar 5.4 20:56:02 10° SSW 21:00:06 24° W 21:04:13 10° NW visible
29 Mar 3.8 20:18:13 10° S 20:23:11 56° W 20:28:12 10° NNW visible
